AirNav   Pilot Hours Calculator
 
 1406 users online  

8PS5 HMC Hanger Heliport
Hershey, Pennsylvania, USA

GOING TO HERSHEY?


FAA INFORMATION EFFECTIVE 07 NOVEMBER 2019

Location

FAA Identifier: 8PS5
Lat/Long: 40-15-42.9000N 076-41-04.9500W
40-15.715000N 076-41.082500W
40.2619167,-76.6847083
(estimated)
Elevation: 421 ft. / 128 m (estimated)
Variation: 10W (1985)
From city: 2 miles SW of HERSHEY, PA
Time zone: UTC -5 (UTC -4 during Daylight Saving Time)
Zip code: 17036

Heliport Operations

Heliport use: Private use, MEDICAL USE
Activation date: 04/1988
Control tower: no
ARTCC: NEW YORK CENTER
FSS: WILLIAMSPORT FLIGHT SERVICE STATION
Attendance: CONTINUOUS
Wind indicator: lighted
Segmented circle: no
Lights: ACTVT PERIMETER LGTS - 123.050.

Heliport Communications

UNICOM: 123.05
WX ASOS at MDT (5 nm SW): PHONE 717-944-1372
WX ASOS at CXY (8 nm W): PHONE 717-770-0880
WX ASOS at MUI (12 nm NE): 124.175 (717-861-2536)
WX AWOS-2 at 9D4 (17 nm E): 118.45 (717-866-2906)
WX ASOS at LNS (20 nm SE): 125.675 (717-569-8860)

Nearby radio navigation aids

VOR radial/distance  VOR name  Freq  Var
HARr108/17.8HARRISBURG VORTAC112.5010W
RAVr204/17.9RAVINE VORTAC114.6011W
LRPr304/19.9LANCASTER VOR/DME117.3009W
SEGr172/33.0SELINSGROVE VOR/DME110.4008W

 
NDB name  Hdg/Dist  Freq  Var  ID
ENOLA096/9.920411WMD -- -..
BELLGROVE220/12.132810WBZJ -... --.. .---

Heliport Services

Fuel available: A

Runway Information

Helipad H1

Dimensions: 80 x 80 ft. / 24 x 24 m
Surface: concrete
Latitude: 40-15.715000N
Longitude: 076-41.082500W
Elevation: 421.0 ft.
Traffic pattern: leftleft

Heliport Ownership and Management from official FAA records

Ownership: Privately-owned
Owner: THE MILTON S HERSHEY MED CNTR
BOX 850 500 UNIVERSITY DRIVE
HERSHEY, PA 17033
Phone 717-531-7365
Manager: TIM KARGES
BOX 850 500 UNIVERSITY DRIVE
HERSHEY, PA 17033
Phone 717-531-5879

Heliport Operational Statistics

Aircraft based on the field: 2
Helicopters: 2
    

Additional Remarks

A40 PERIMETER LGTS
40 FT CIRC TLOF MARKED.
FOR CD CTC HARRISBURG APCH AT 800-932-0712.

Instrument Procedures

There are no published instrument procedures at 8PS5.

Some nearby airports with instrument procedures:

58N - Reigle Field Airport (5 nm E)
KMDT - Harrisburg International Airport (5 nm SW)
KCXY - Capital City Airport (8 nm W)
N71 - Donegal Springs Airpark (11 nm SE)
KMUI - Muir Army Airfield (Fort Indiantown Gap) (12 nm NE)
08N - Keller Brothers Airport (16 nm E)
9D4 - Deck Airport (17 nm E)
74N - Bendigo Airport (19 nm N)
KLNS - Lancaster Airport (20 nm SE)
 
Loc | Ops | Rwys | IFR | FBO | Links
Com | Nav | Svcs | Stats | Notes
Area around 8PS5 (HMC Hanger Heliport)
 
Road maps at: MapQuest Bing Google
 
Aerial photo
No photo
 
Sectional chart

 
Airport distance calculator
Flying to HMC Hanger Heliport? Find the distance to fly.

From to 8PS5

Sunrise and sunset
Times for 13-Nov-2019
 Local
(UTC-5)
 Zulu
(UTC)
Morning civil twilight06:2211:22
Sunrise06:5111:51
Sunset16:5121:51
Evening civil twilight17:2022:20

Current date and time
Zulu (UTC)  13-Nov-2019 19:44:52
Local (UTC-5)  13-Nov-2019 14:44:52
 
METAR
KMDT 
5nm SW 
131856Z 32009KT 10SM SCT047 SCT250 01/M11 A3037 RMK AO2 SLP289 T00111106
KCXY 
8nm W 
131856Z 35007KT 10SM FEW055 02/M11 A3038 RMK AO2 SLP293 T00171111
KMUI 
11nm NE 
131856Z 28005KT 10SM SCT044 01/M11 A3036 RMK AO2A SLP290 T00081110
KLNS 
20nm SE 
131853Z 33008G16KT 10SM CLR 01/M11 A3036 RMK AO2 SLP287 T00061111
TAF
KMDT 
5nm SW 
131818Z 1318/1418 33010G15KT P6SM SCT045 FM132300 VRB03KT P6SM SCT250 FM141500 16006KT P6SM SCT250
KMUI 
11nm NE 
131100Z 1311/1417 32009KT 9999 FEW040 510023 QNH3028INS BECMG 1323/1324 13006KT 9999 SCT200 QNH3030INS BECMG 1415/1416 18010G15KT 9999 FEW100 510023 QNH3028INS TX01/1319Z TNM06/1311Z
KLNS 
20nm SE 
131818Z 1318/1418 33010G15KT P6SM SCT045 FM132100 VRB03KT P6SM SCT250 FM141500 18007KT P6SM SKC
NOTAMs
Click for the latest NOTAMs
NOTAMs are issued by the DoD/FAA and will open in a separate window not controlled by AirNav.

 

 
 

Would you like to see your business listed on this page?

 If your business provides an interesting product or service to pilots, flight crews, aircraft, or users of the HMC Hanger Heliport, you should consider listing it here.  To start the listing process, click on the button below
 
Add a business
 

Other Pages about HMC Hanger Heliport

Update a link
 
Copyright © AirNav, LLC. All rights reserved. Privacy Policy  Contact